EW5037 Weather Reports


Display with metric or nautical units.
time (UTC)temp
F
wind
direction
speed
MPH
gust
MPH
rain 1hr
in
rain 24hr
in
rain mn
in
humidity
%
barometer
mb
20260504201444 76 113 6.0 12.0 0.00 0.00 0.00 36 1017.7
20260504200358 76 135 5.0 6.0 0.00 0.00 0.00 36 1017.7
20260504195753 76 225 6.0 11.0 0.00 0.00 0.00 35 1017.9
20260504194711 75 68 7.0 9.0 0.00 0.00 0.00 34 1017.9
20260504193138 76 158 7.0 13.0 0.00 0.00 0.00 34 1018.1
20260504192053 75 135 8.0 11.0 0.00 0.00 0.00 36 1018.1
20260504191008 76 113 6.0 8.0 0.00 0.00 0.00 36 1018.1
20260504185923 76 158 7.0 12.0 0.00 0.00 0.00 36 1018.3
20260504185154 75 135 6.0 12.0 0.00 0.00 0.00 36 1018.5
20260504184839 75 90 6.0 12.0 0.00 0.00 0.00 37 1018.3
20260504182704 75 135 7.0 12.0 0.00 0.00 0.00 38 1018.5
20260504181621 75 158 6.0 11.0 0.00 0.00 0.00 38 1019.0
20260504180535 75 135 6.0 6.0 0.00 0.00 0.00 38 1019.0
20260504175931 75 135 7.0 17.0 0.00 0.00 0.00 38 1018.9
20260504174402 74 180 6.0 9.0 0.00 0.00 0.00 40 1018.9
20260504173323 74 180 6.0 13.0 0.00 0.00 0.00 41 1018.8
20260504172233 74 113 7.0 6.0 0.00 0.00 0.00 41 1018.8
20260504171146 74 158 8.0 17.0 0.00 0.00 0.00 40 1019.1
20260504150233 71 135 6.0 9.0 0.00 0.00 0.00 50 1018.9
20260504140844 68 180 3.0 10.0 0.00 0.00 0.00 62 1019.4
20260504130404 63 315 0.0 0.0 0.00 0.00 0.00 76 1019.3
20260504100116 59 68 0.0 0.0 0.00 0.00 0.00 73 1018.7
20260504081754 57 338 0.0 1.0 0.00 0.00 0.00 72 1018.9
20260504080233 57 113 0.0 0.0 0.00 0.00 0.00 72 1018.9
20260504045935 60 315 0.0 0.0 0.00 0.00 0.00 68 1020.4
20260504044846 61 315 0.0 0.0 0.00 0.00 0.00 67 1020.4
20260504043806 60 315 0.0 0.0 0.00 0.00 0.00 67 1020.6
20260504042718 61 315 0.0 0.0 0.00 0.00 0.00 65 1020.6
20260504042109 62 315 0.0 0.0 0.00 0.00 0.00 66 1020.7
20260504040546 61 315 0.0 0.0 0.00 0.00 0.00 65 1020.7
20260504035500 62 315 0.0 0.0 0.00 0.00 0.00 65 1020.6
20260504034415 62 315 0.0 0.0 0.00 0.00 0.00 64 1020.6
20260504033333 62 315 0.0 0.0 0.00 0.00 0.00 63 1020.8
20260504032244 63 225 0.0 0.0 0.00 0.00 0.00 62 1020.8
20260504031158 63 225 0.0 0.0 0.00 0.00 0.00 62 1020.9
20260504030119 62 225 0.0 0.0 0.00 0.00 0.00 61 1020.9
20260504025033 63 225 0.0 0.0 0.00 0.00 0.00 60 1020.9
20260504023941 64 135 0.0 0.0 0.00 0.00 0.00 60 1020.6
20260504022900 64 293 0.0 0.0 0.00 0.00 0.00 60 1020.6
20260504021810 65 135 0.0 0.0 0.00 0.00 0.00 58 1020.2
20260504020724 65 113 0.0 0.0 0.00 0.00 0.00 58 1020.2
20260504015639 65 158 1.0 2.0 0.00 0.00 0.00 58 1020.2
20260504014553 65 225 1.0 2.0 0.00 0.00 0.00 56 1020.2
20260504013508 66 135 0.0 0.0 0.00 0.00 0.00 55 1019.9
20260504012426 67 135 0.0 1.0 0.00 0.00 0.00 52 1019.9
20260504011821 69 293 0.0 1.0 0.00 0.00 0.00 49 1020.4
20260504010250 69 180 1.0 2.0 0.00 0.00 0.00 48 1020.4
20260504005205 69 135 2.0 4.0 0.00 0.00 0.00 47 1019.7
20260504004121 70 180 2.0 4.0 0.00 0.00 0.00 46 1019.4
20260504003032 70 135 3.0 4.0 0.00 0.00 0.00 45 1019.4
20260504002431 71 180 3.0 5.0 0.00 0.00 0.00 44 1019.6
20260504000904 71 180 3.0 5.0 0.00 0.00 0.00 43 1019.6
20260503235821 72 158 4.0 7.0 0.00 0.00 0.00 42 1019.5
20260503234734 72 180 4.0 6.0 0.00 0.00 0.00 41 1019.5
20260503233646 73 180 4.0 7.0 0.00 0.00 0.00 41 1019.6
20260503232601 73 180 3.0 4.0 0.00 0.00 0.00 39 1019.6
20260503231522 73 135 3.0 5.0 0.00 0.00 0.00 39 1019.8
20260503230432 73 113 4.0 6.0 0.00 0.00 0.00 38 1019.8
20260503225345 73 113 4.0 7.0 0.00 0.00 0.00 38 1019.7
20260503224739 73 135 5.0 11.0 0.00 0.00 0.00 36 1019.7
20260503223216 74 158 4.0 9.0 0.00 0.00 0.00 36 1019.8
20260503222129 74 45 2.0 3.0 0.00 0.00 0.00 34 1020.1
20260503221522 74 293 5.0 8.0 0.00 0.00 0.00 33 1020.1
20260503215955 74 23 3.0 7.0 0.00 0.00 0.00 34 1020.0
20260503214911 74 90 3.0 9.0 0.00 0.00 0.00 35 1020.0
20260503213825 74 270 4.0 6.0 0.00 0.00 0.00 35 1020.2
20260503212738 74 315 4.0 9.0 0.00 0.00 0.00 35 1020.2
20260503212128 74 248 4.0 5.0 0.00 0.00 0.00 35 1020.6
20260503210612 75 68 4.0 6.0 0.00 0.00 0.00 34 1020.6
20260503205520 75 23 5.0 10.0 0.00 0.00 0.00 35 1020.7
20260503204434 76 180 4.0 7.0 0.00 0.00 0.00 34 1020.7
20260503203346 75 68 5.0 9.0 0.00 0.00 0.00 34 1021.1
20260503202736 75 23 3.0 8.0 0.00 0.00 0.00 35 1021.1